Weather in Povarkasy

Russia / Chuvash Republic     55°42′50″N   47°30′47″E
temp.,
°C
wind,
m/s
gust,
m/s
humid.,
%
clouds,
%
prec.,
mm/h
press.,
hPa
HPBL,
m
5 march, fri
fri500:00−9w34958 0.0 99865
03:00−10wnw339554 0.0 100041
06:00−11nw2296100 0.0 100021
09:00−10nw229598 0.0 100293
12:00−7wnw349277 0.0 1004275
15:00−6w479269 0.0 1006366
18:00−10w479529 0.0 100792
21:00−11wsw449514 0.0 100961
6 march, sat
sat600:00−9wsw5109592 0.1 1010293
03:00−11w479694 0.2 1012156
06:00−14wnw489699 0.1 1013185
09:00−15wnw369580 0.1 1015157
12:00−11w359140 0.0 1015267
15:00−10wsw368920 0.0 1014345
18:00−13wsw349017 0.0 101343
21:00−13wsw369353 0.0 1013111
7 march, sun
sun700:00−15wsw339795 0.1 101249
03:00−16w239895 0.1 101223
06:00−19w3310092 0.0 101126
09:00−16sw349572 0.0 1010133
12:00−10ssw47900 0.0 1007375
15:00−7s6108748 0.0 1005692
18:00−7ssw71494100 0.4 1001834
21:00−7s81493100 1.2 998869
8 march, mon
mon800:00−6s71395100 0.8 994744
03:00−5wnw81392100 2.6 994766
06:00−13wsw5119067 0.1 995237
09:00−11sw5109143 0.1 997353
12:00−8sw61190100 0.1 997792
15:00−6sw6991100 0.5 996869
18:00−7ssw2294100 0.6 99537
21:00−8w5995100 0.9 996319
9 march, tue
tue900:00−11wnw6129485 0.3 998417
03:00−13wnw589592 0.6 1002219
06:00−16wnw469795 0.1 1005102
09:00−13nw469496 0.2 1008297
12:00−11wnw4591100 0.1 1010447
15:00−11wnw4590100 0.2 1011542
18:00−13nw3696100 0.2 1011152
21:00−15nnw3596100 0.3 1013120